Louisville Bowman, KY

9:23 PM EDT on July 26, 2017 (GMT -0400)
Bowman

Weather History for KLOU - April, 2014

Change the Weather History Date:

Saturday, April 26, 2014

  Actual Average Record
Temperature  
Mean Temperature 65 °F 60 °F  
Max Temperature 81 °F 71 °F 90 °F (1989)
Min Temperature 49 °F 50 °F 37 °F (2013)
Degree Days  
Heating Degree Days 0 6  
Month to date heating degree days 152 248  
Since 1 July heating degree days 4638 4171  
Cooling Degree Days 0 1  
Month to date cooling degree days 23 26  
Year to date cooling degree days 23 30  
Growing Degree Days 16 (Base 50)    
Moisture  
Dew Point 41 °F    
Average Humidity 48    
Maximum Humidity 74    
Minimum Humidity 21    
Precipitation  
Precipitation 0.00 in 0.17 in 1.05 in (2007)
Month to date precipitation 4.85 3.41  
Year to date precipitation 12.80 14.13  
Sea Level Pressure  
Sea Level Pressure 29.94 in    
Wind  
Wind Speed 5 mph (SW)    
Max Wind Speed 17 mph    
Max Gust Speed 22 mph    
Visibility 10 miles    
Events      
T = Trace of Precipitation, MM = Missing Value Source: NWS Daily Summary

Daily Weather History Graph

Daily Weather History Graph

Search for Another Location

Airport or City:

Trip Planner

Search our weather history database for the weather conditions in past years. The results will help you decide how hot, cold, wet, or windy it might be!

Date:

Astronomy

Apr. 26, 2014 Rise Set
Actual Time 6:52 AM EDT 8:29 PM EDT
Civil Twilight 6:24 AM EDT 8:57 PM EDT
Nautical Twilight 5:50 AM EDT 9:31 PM EDT
Astronomical Twilight 5:14 AM EDT 10:07 PM EDT
Moon 5:13 AM EDT (4/26) 5:59 PM EDT (4/26)
Length of Visible Light 14h 33m
Length of Day
13h 37m
Waning Crescent, 8% of the Moon is Illuminated
Apr 26
Waning Crescent
Apr 29
New
May 6
First Quarter
May 14
Full
May 21
Last Quarter

Hourly Weather History & Observations

Time (EDT) Temp. Dew Point Humidity Pressure Visibility Wind Dir Wind Speed Gust Speed Precip Events Conditions
12:53 AM 55.9 °F 43.0 °F 62% 29.95 in 10.0 mi Calm Calm - N/A   Clear
1:53 AM 53.1 °F 43.0 °F 69% 29.95 in 10.0 mi Calm Calm - N/A   Clear
2:53 AM 53.1 °F 43.0 °F 69% 29.94 in 10.0 mi Calm Calm - N/A   Clear
3:53 AM 51.1 °F 43.0 °F 74% 29.93 in 10.0 mi Calm Calm - N/A   Clear
4:53 AM 50.0 °F 43.0 °F 77% 29.94 in 10.0 mi Calm Calm - N/A   Clear
5:53 AM 50.0 °F 43.0 °F 77% 29.95 in 10.0 mi Calm Calm - N/A   Clear
6:53 AM 50.0 °F 42.1 °F 74% 29.95 in 10.0 mi Calm Calm - N/A   Clear
7:53 AM 53.1 °F 44.1 °F 71% 29.97 in 10.0 mi South 3.5 mph - N/A   Clear
8:53 AM 61.0 °F 44.1 °F 54% 29.97 in 10.0 mi South 5.8 mph - N/A   Clear
9:53 AM 66.9 °F 44.1 °F 44% 29.97 in 10.0 mi SSW 6.9 mph - N/A   Clear
10:53 AM 72.0 °F 43.0 °F 35% 29.97 in 10.0 mi WSW 10.4 mph - N/A   Clear
11:53 AM 75.0 °F 42.1 °F 31% 29.97 in 10.0 mi WSW 12.7 mph - N/A   Clear
12:53 PM 78.1 °F 39.9 °F 25% 29.96 in 10.0 mi SW 13.8 mph 21.9 mph N/A   Clear
1:53 PM 79.0 °F 41.0 °F 26% 29.95 in 10.0 mi SW 11.5 mph 19.6 mph N/A   Clear
2:53 PM 80.1 °F 41.0 °F 25% 29.94 in 10.0 mi WSW 11.5 mph 21.9 mph N/A   Clear
3:53 PM 81.0 °F 39.9 °F 23% 29.92 in 10.0 mi SW 9.2 mph 20.7 mph N/A   Clear
4:53 PM 81.0 °F 37.9 °F 21% 29.91 in 10.0 mi WSW 8.1 mph 17.3 mph N/A   Clear
5:53 PM 81.0 °F 37.0 °F 21% 29.91 in 10.0 mi WSW 6.9 mph - N/A   Clear
6:53 PM 79.0 °F 35.1 °F 20% 29.90 in 10.0 mi SW 8.1 mph - N/A   Clear
7:53 PM 78.1 °F 37.0 °F 23% 29.89 in 10.0 mi Calm Calm - N/A   Clear
8:53 PM 73.0 °F 41.0 °F 31% 29.89 in 10.0 mi Calm Calm - N/A   Clear
9:53 PM 69.1 °F 41.0 °F 36% 29.90 in 10.0 mi Calm Calm - N/A   Clear
10:53 PM 64.0 °F 42.1 °F 45% 29.92 in 10.0 mi Calm Calm - N/A   Clear
11:53 PM 62.1 °F 44.1 °F 52% 29.92 in 10.0 mi Calm Calm - N/A   Clear